TimeAWST,TemperatureF,Dew PointF,Humidity,Sea Level PressureIn,VisibilityMPH,Wind Direction,Wind SpeedMPH,Gust SpeedMPH,PrecipitationIn,Events,Conditions,WindDirDegrees,DateUTC
12:00 AM,53.6,50.0,88,29.89,6.2,NNE,8.1,-,N/A,,Partly Cloudy,30,2013-09-19 16:00:00
12:30 AM,55.4,50.0,82,29.89,6.2,NNE,8.1,-,N/A,,Mostly Cloudy,20,2013-09-19 16:30:00
1:00 AM,55.4,50.0,82,29.86,6.2,NNE,11.5,-,N/A,,Mostly Cloudy,20,2013-09-19 17:00:00
1:30 AM,55.4,50.0,82,29.86,6.2,North,10.4,-,N/A,,Mostly Cloudy,360,2013-09-19 17:30:00
2:00 AM,56,49,71,29.87,,North,10.4,,,,,0,2013-09-19 18:00:00
2:00 AM,55.4,50.0,82,29.86,6.2,North,10.4,-,N/A,,Mostly Cloudy,360,2013-09-19 18:00:00
2:30 AM,55.4,50.0,82,29.86,6.2,North,9.2,-,N/A,,Mostly Cloudy,360,2013-09-19 18:30:00
3:00 AM,56,50,73,29.85,12,North,6.9,,,,Partly Cloudy,0,2013-09-19 19:00:00
3:00 AM,55.4,50.0,82,29.83,6.2,North,6.9,-,N/A,,Mostly Cloudy,360,2013-09-19 19:00:00
3:30 AM,55.4,50.0,82,29.83,6.2,North,10.4,-,N/A,,Scattered Clouds,360,2013-09-19 19:30:00
4:00 AM,55.4,50.0,82,29.83,6.2,North,11.5,-,N/A,Rain,Light Rain Showers,10,2013-09-19 20:00:00
4:30 AM,55.4,50.0,82,29.80,6.2,North,13.8,-,N/A,,Mostly Cloudy,10,2013-09-19 20:30:00
5:00 AM,54,51,85,29.83,,North,11.5,,,,,0,2013-09-19 21:00:00
5:00 AM,53.6,50.0,88,29.83,6.2,North,11.5,-,N/A,Rain,Light Rain Showers,360,2013-09-19 21:00:00
5:30 AM,53.6,50.0,88,29.83,6.2,North,9.2,-,N/A,,Partly Cloudy,10,2013-09-19 21:30:00
6:00 AM,53,50,85,29.84,12,NNE,9.2,,,,Partly Cloudy,20,2013-09-19 22:00:00
6:00 AM,53.6,50.0,88,29.83,6.2,NNE,9.2,-,N/A,,Partly Cloudy,20,2013-09-19 22:00:00
6:30 AM,53.6,50.0,88,29.83,6.2,NNE,9.2,-,N/A,,Scattered Clouds,20,2013-09-19 22:30:00
7:00 AM,53.6,50.0,88,29.83,6.2,North,9.2,-,N/A,,Scattered Clouds,10,2013-09-19 23:00:00
7:30 AM,55.4,51.8,88,29.83,6.2,North,11.5,-,N/A,,Scattered Clouds,10,2013-09-19 23:30:00
7:50 AM,57.2,51.8,82,29.83,2.5,North,12.7,-,N/A,Rain,Rain Showers,360,2013-09-19 23:50:00
8:00 AM,55,53,91,29.86,,North,12.7,,,,,0,2013-09-20 00:00:00
8:00 AM,55.4,53.6,94,29.83,5.0,North,12.7,-,N/A,Rain,Light Rain Showers,360,2013-09-20 00:00:00
8:30 AM,57.2,55.4,94,29.83,6.2,North,12.7,-,N/A,,Scattered Clouds,10,2013-09-20 00:30:00
9:00 AM,61,56,80,29.87,19,North,11.5,,,Rain,Light Rain Showers,0,2013-09-20 01:00:00
9:00 AM,60.8,57.2,88,29.86,6.2,North,11.5,-,N/A,,Scattered Clouds,360,2013-09-20 01:00:00
9:30 AM,62.6,59.0,88,29.86,6.2,North,11.5,-,N/A,Rain,Light Rain Showers,360,2013-09-20 01:30:00
10:00 AM,66.2,59.0,78,29.86,6.2,NNW,12.7,-,N/A,,Scattered Clouds,330,2013-09-20 02:00:00
10:13 AM,66.2,57.2,73,29.83,6.2,NNW,17.3,28.8,N/A,,Scattered Clouds,330,2013-09-20 02:13:00
10:30 AM,66.2,57.2,73,29.83,6.2,NW,17.3,-,N/A,,Scattered Clouds,320,2013-09-20 02:30:00
11:00 AM,68,58,61,29.85,,NW,19.6,,,,,310,2013-09-20 03:00:00
11:00 AM,68.0,57.2,68,29.83,6.2,NW,19.6,-,N/A,,Partly Cloudy,310,2013-09-20 03:00:00
11:08 AM,68.0,59.0,73,29.83,6.2,NW,20.7,33.4,N/A,,Partly Cloudy,310,2013-09-20 03:08:00
11:30 AM,68.0,55.4,64,29.83,6.2,WNW,17.3,-,N/A,,Scattered Clouds,300,2013-09-20 03:30:00
12:00 PM,68,55,54,29.85,19,WNW,20.7,,,,Partly Cloudy,300,2013-09-20 04:00:00
12:00 PM,68.0,55.4,64,29.83,6.2,WNW,20.7,-,N/A,,Scattered Clouds,300,2013-09-20 04:00:00
12:12 PM,68.0,53.6,60,29.83,6.2,WNW,23.0,34.5,N/A,,Scattered Clouds,290,2013-09-20 04:12:00
12:30 PM,69.8,55.4,60,29.83,6.2,WNW,23.0,-,N/A,,Scattered Clouds,300,2013-09-20 04:30:00
12:51 PM,68.0,53.6,60,29.83,6.2,West,21.9,-,N/A,,Scattered Clouds,270,2013-09-20 04:51:00
1:02 PM,68.0,53.6,60,29.83,6.2,West,21.9,33.4,N/A,,Mostly Cloudy,280,2013-09-20 05:02:00
1:06 PM,68.0,53.6,60,29.83,2.5,West,19.6,33.4,N/A,Rain,Rain Showers,280,2013-09-20 05:06:00
1:25 PM,60.8,57.2,88,29.83,3.7,West,16.1,29.9,N/A,Rain,Light Rain Showers,270,2013-09-20 05:25:00
1:30 PM,62.6,57.2,82,29.83,5.0,West,12.7,-,N/A,,Mostly Cloudy,260,2013-09-20 05:30:00
2:00 PM,65,56,65,29.85,,West,10.4,,,,,280,2013-09-20 06:00:00
2:00 PM,64.4,55.4,73,29.83,6.2,West,10.4,-,N/A,,Mostly Cloudy,280,2013-09-20 06:00:00
2:28 PM,66.2,55.4,68,29.83,3.7,WNW,12.7,-,N/A,Rain,Light Rain Showers,290,2013-09-20 06:28:00
2:30 PM,66.2,55.4,68,29.83,3.1,West,17.3,-,N/A,Rain,Light Rain Showers,260,2013-09-20 06:30:00
2:52 PM,60.8,59.0,94,29.86,6.2,West,10.4,-,N/A,,Mostly Cloudy,280,2013-09-20 06:52:00
3:00 PM,62,59,87,29.86,9,West,10.4,,,Rain,Light Rain Showers,280,2013-09-20 07:00:00
3:00 PM,62.6,59.0,88,29.86,6.2,West,10.4,-,N/A,Rain,Light Rain Showers,280,2013-09-20 07:00:00
3:30 PM,64.4,59.0,83,29.86,6.2,WNW,9.2,-,N/A,,Mostly Cloudy,290,2013-09-20 07:30:00
4:00 PM,66.2,53.6,64,29.86,6.2,West,10.4,-,N/A,,Partly Cloudy,280,2013-09-20 08:00:00
4:30 PM,66.2,51.8,60,29.86,6.2,West,12.7,-,N/A,,Partly Cloudy,280,2013-09-20 08:30:00
5:00 PM,65,50,48,29.88,,West,11.5,,,,,270,2013-09-20 09:00:00
5:00 PM,64.4,50.0,59,29.86,6.2,West,11.5,-,N/A,,Scattered Clouds,270,2013-09-20 09:00:00
5:30 PM,64.4,48.2,56,29.89,6.2,West,10.4,-,N/A,,Partly Cloudy,270,2013-09-20 09:30:00
6:00 PM,62.6,50.0,63,29.89,6.2,West,9.2,-,N/A,,Partly Cloudy,260,2013-09-20 10:00:00
6:30 PM,60.8,51.8,72,29.89,6.2,West,8.1,-,N/A,,Partly Cloudy,260,2013-09-20 10:30:00
7:00 PM,60.8,51.8,72,29.92,6.2,West,5.8,-,N/A,,Partly Cloudy,270,2013-09-20 11:00:00
7:30 PM,59.0,51.8,77,29.92,6.2,West,5.8,-,N/A,,Partly Cloudy,260,2013-09-20 11:30:00
8:00 PM,59,53,73,29.95,,SW,5.8,,,,,230,2013-09-20 12:00:00
8:00 PM,59.0,51.8,77,29.95,6.2,SW,5.8,-,N/A,,Partly Cloudy,230,2013-09-20 12:00:00
8:30 PM,55.4,51.8,88,29.95,6.2,WSW,4.6,-,N/A,,Partly Cloudy,250,2013-09-20 12:30:00
9:00 PM,55,52,87,29.97,16,NNW,5.8,,,,Partly Cloudy,330,2013-09-20 13:00:00
9:00 PM,55.4,51.8,88,29.95,6.2,NNW,5.8,-,N/A,,Partly Cloudy,330,2013-09-20 13:00:00
9:30 PM,55.4,51.8,88,29.95,6.2,NW,3.5,-,N/A,,Partly Cloudy,310,2013-09-20 13:30:00
10:00 PM,53.6,51.8,94,29.95,6.2,NW,4.6,-,N/A,,Partly Cloudy,320,2013-09-20 14:00:00
10:30 PM,51.8,50.0,94,29.95,6.2,WNW,6.9,-,N/A,,Partly Cloudy,290,2013-09-20 14:30:00
11:00 PM,51,50,95,29.97,,NW,6.9,,,,,310,2013-09-20 15:00:00
11:00 PM,51.8,50.0,94,29.95,6.2,NW,6.9,-,N/A,,Partly Cloudy,310,2013-09-20 15:00:00
11:30 PM,50.0,48.2,94,29.95,6.2,North,5.8,-,N/A,,Partly Cloudy,10,2013-09-20 15:30:00